TimeCDT,TemperatureF,Dew PointF,Humidity,Sea Level PressureIn,VisibilityMPH,Wind Direction,Wind SpeedMPH,Gust SpeedMPH,PrecipitationIn,Events,Conditions,WindDirDegrees,DateUTC
12:16 AM,64.4,30.2,28,29.73,10.0,SE,16.1,-,N/A,,Clear,140,2012-10-04 05:16:00
12:35 AM,64.4,30.2,28,29.72,10.0,SSE,12.7,-,N/A,,Clear,150,2012-10-04 05:35:00
12:55 AM,64.4,30.2,28,29.71,10.0,SSE,11.5,-,N/A,,Clear,150,2012-10-04 05:55:00
1:15 AM,64.4,30.2,28,29.72,10.0,South,9.2,-,N/A,,Clear,190,2012-10-04 06:15:00
1:35 AM,60.8,35.6,39,29.73,7.0,SSW,16.1,24.2,N/A,,Clear,210,2012-10-04 06:35:00
1:55 AM,55.4,37.4,51,29.74,7.0,SW,18.4,27.6,N/A,,Clear,220,2012-10-04 06:55:00
2:15 AM,53.6,39.2,58,29.76,7.0,WSW,21.9,31.1,N/A,,Clear,240,2012-10-04 07:15:00
2:35 AM,51.8,39.2,62,29.77,10.0,West,25.3,32.2,N/A,,Clear,260,2012-10-04 07:35:00
2:55 AM,50.0,39.2,66,29.79,10.0,West,26.5,39.1,N/A,,Mostly Cloudy,260,2012-10-04 07:55:00
3:15 AM,50.0,39.2,66,29.80,10.0,West,25.3,38.0,N/A,,Overcast,260,2012-10-04 08:15:00
3:35 AM,48.2,39.2,71,29.82,10.0,West,20.7,32.2,N/A,,Overcast,270,2012-10-04 08:35:00
3:55 AM,48.2,39.2,71,29.83,10.0,West,24.2,36.8,N/A,,Overcast,270,2012-10-04 08:55:00
4:15 AM,48.2,39.2,71,29.84,10.0,West,26.5,34.5,N/A,,Overcast,270,2012-10-04 09:15:00
4:35 AM,46.4,39.2,76,29.84,10.0,West,31.1,36.8,N/A,,Overcast,270,2012-10-04 09:35:00
4:55 AM,46.4,39.2,76,29.85,10.0,West,26.5,40.3,N/A,,Overcast,280,2012-10-04 09:55:00
5:15 AM,46.4,37.4,71,29.88,10.0,West,25.3,46.0,N/A,,Overcast,270,2012-10-04 10:15:00
5:35 AM,44.6,37.4,76,29.87,10.0,WNW,33.4,43.7,N/A,,Overcast,290,2012-10-04 10:35:00
5:56 AM,42.8,35.6,76,29.90,10.0,West,27.6,40.3,N/A,,Overcast,270,2012-10-04 10:56:00
6:15 AM,42.8,33.8,70,29.91,10.0,West,31.1,42.6,N/A,,Overcast,280,2012-10-04 11:15:00
6:35 AM,42.8,33.8,70,29.92,10.0,WNW,28.8,40.3,N/A,,Overcast,290,2012-10-04 11:35:00
6:55 AM,41.0,32.0,70,29.93,10.0,WNW,26.5,40.3,N/A,,Overcast,290,2012-10-04 11:55:00
7:15 AM,41.0,32.0,70,29.93,10.0,WNW,24.2,36.8,N/A,,Overcast,300,2012-10-04 12:15:00
7:35 AM,41.0,32.0,70,29.95,10.0,WNW,20.7,35.7,N/A,,Overcast,290,2012-10-04 12:35:00
7:56 AM,39.2,30.2,70,29.96,10.0,WNW,25.3,39.1,N/A,,Overcast,290,2012-10-04 12:56:00
8:15 AM,41.0,32.0,70,29.97,10.0,WNW,24.2,36.8,N/A,,Overcast,290,2012-10-04 13:15:00
8:35 AM,39.2,32.0,75,29.99,10.0,WNW,31.1,38.0,N/A,,Overcast,290,2012-10-04 13:35:00
8:56 AM,39.2,33.8,81,30.00,4.0,WNW,24.2,32.2,N/A,,Haze,290,2012-10-04 13:56:00
9:15 AM,39.2,33.8,81,30.01,7.0,WNW,26.5,34.5,N/A,,Overcast,290,2012-10-04 14:15:00
9:35 AM,39.2,32.0,75,30.01,10.0,WNW,31.1,36.8,N/A,,Overcast,290,2012-10-04 14:35:00
9:55 AM,41.0,32.0,70,30.02,10.0,WNW,24.2,36.8,N/A,,Overcast,290,2012-10-04 14:55:00
10:15 AM,41.0,30.2,65,30.03,10.0,WNW,27.6,40.3,N/A,,Overcast,300,2012-10-04 15:15:00
10:36 AM,42.8,30.2,61,30.03,10.0,WNW,31.1,42.6,N/A,,Overcast,290,2012-10-04 15:36:00
10:55 AM,42.8,30.2,61,30.04,10.0,WNW,26.5,35.7,N/A,,Overcast,300,2012-10-04 15:55:00
11:15 AM,42.8,30.2,61,30.05,10.0,WNW,26.5,41.4,N/A,,Overcast,300,2012-10-04 16:15:00
11:36 AM,44.6,30.2,57,30.06,10.0,WNW,27.6,38.0,N/A,,Overcast,300,2012-10-04 16:36:00
11:55 AM,44.6,30.2,57,30.07,10.0,WNW,28.8,39.1,N/A,,Overcast,300,2012-10-04 16:55:00
12:15 PM,44.6,30.2,57,30.08,10.0,NW,31.1,41.4,N/A,,Overcast,310,2012-10-04 17:15:00
12:36 PM,44.6,30.2,57,30.09,10.0,WNW,28.8,40.3,N/A,,Overcast,300,2012-10-04 17:36:00
12:55 PM,44.6,30.2,57,30.09,10.0,NW,28.8,41.4,N/A,,Overcast,310,2012-10-04 17:55:00
1:36 PM,46.4,30.2,53,30.11,10.0,WNW,28.8,34.5,N/A,,Overcast,290,2012-10-04 18:36:00
1:55 PM,46.4,30.2,53,30.12,10.0,WNW,18.4,35.7,N/A,,Overcast,300,2012-10-04 18:55:00
2:15 PM,46.4,28.4,50,30.12,10.0,WNW,28.8,35.7,N/A,,Overcast,300,2012-10-04 19:15:00
2:36 PM,44.6,28.4,53,30.13,10.0,WNW,25.3,34.5,N/A,,Overcast,290,2012-10-04 19:36:00
2:55 PM,46.4,28.4,50,30.14,10.0,WNW,25.3,31.1,N/A,,Overcast,300,2012-10-04 19:55:00
3:15 PM,46.4,28.4,50,30.14,10.0,WNW,19.6,33.4,N/A,,Overcast,290,2012-10-04 20:15:00
3:36 PM,46.4,28.4,50,30.14,10.0,NW,27.6,34.5,N/A,,Overcast,310,2012-10-04 20:36:00
3:55 PM,46.4,28.4,50,30.15,10.0,NW,29.9,36.8,N/A,,Mostly Cloudy,310,2012-10-04 20:55:00
4:15 PM,46.4,28.4,50,30.15,10.0,WNW,21.9,33.4,N/A,,Overcast,300,2012-10-04 21:15:00
4:36 PM,46.4,28.4,50,30.16,10.0,WNW,19.6,32.2,N/A,,Overcast,300,2012-10-04 21:36:00
4:55 PM,46.4,28.4,50,30.16,10.0,WNW,19.6,26.5,N/A,,Overcast,300,2012-10-04 21:55:00
5:15 PM,46.4,28.4,50,30.16,10.0,NW,20.7,26.5,N/A,,Overcast,310,2012-10-04 22:15:00
5:36 PM,46.4,26.6,46,30.17,10.0,WNW,24.2,34.5,N/A,,Overcast,300,2012-10-04 22:36:00
5:55 PM,46.4,28.4,50,30.17,10.0,NW,20.7,31.1,N/A,,Overcast,310,2012-10-04 22:55:00
6:15 PM,46.4,28.4,50,30.17,10.0,WNW,21.9,29.9,N/A,,Overcast,300,2012-10-04 23:15:00
6:36 PM,44.6,30.2,57,30.18,10.0,WNW,16.1,29.9,N/A,,Overcast,290,2012-10-04 23:36:00
6:55 PM,44.6,30.2,57,30.18,10.0,NW,18.4,23.0,N/A,,Overcast,310,2012-10-04 23:55:00
7:15 PM,44.6,30.2,57,30.18,10.0,WNW,15.0,20.7,N/A,,Overcast,290,2012-10-05 00:15:00
7:36 PM,44.6,30.2,57,30.18,10.0,West,19.6,24.2,N/A,,Overcast,280,2012-10-05 00:36:00
7:55 PM,44.6,30.2,57,30.18,10.0,WNW,15.0,27.6,N/A,,Overcast,290,2012-10-05 00:55:00
9:15 PM,42.8,30.2,61,30.20,10.0,WNW,17.3,25.3,N/A,,Mostly Cloudy,290,2012-10-05 02:15:00
9:35 PM,42.8,30.2,61,30.21,10.0,WNW,17.3,23.0,N/A,,Mostly Cloudy,290,2012-10-05 02:35:00
9:55 PM,42.8,30.2,61,30.21,10.0,WNW,18.4,24.2,N/A,,Overcast,290,2012-10-05 02:55:00
10:15 PM,42.8,30.2,61,30.22,10.0,WNW,19.6,26.5,N/A,,Overcast,300,2012-10-05 03:15:00
10:35 PM,41.0,33.8,76,30.22,10.0,WNW,16.1,-,N/A,,Overcast,290,2012-10-05 03:35:00
10:55 PM,42.8,33.8,70,30.21,10.0,WNW,15.0,18.4,N/A,,Overcast,290,2012-10-05 03:55:00
11:15 PM,42.8,32.0,66,30.21,10.0,WNW,15.0,19.6,N/A,,Overcast,290,2012-10-05 04:15:00
11:35 PM,42.8,30.2,61,30.21,10.0,WNW,17.3,21.9,N/A,,Overcast,290,2012-10-05 04:35:00
11:55 PM,42.8,30.2,61,30.21,10.0,WNW,16.1,19.6,N/A,,Overcast,290,2012-10-05 04:55:00